[[{"header":{"parameterUnit":"m.s-1","parameterCategory":1,"la1":30.2992,"la2":30.254,"lo1":-89.0895,"lo2":-89.0443,"dy":0.0025,"dx":0.0025,"nx":19,"ny":19,"refTime":"2026-03-21T21:00:00:Z","depth":0,"parameterNumber":2,"parameterNumberName":"U-component_of_WINDS"},"data":[0,0,0,2.4145,2.4148,2.432,2.432,2.4539,2.454,0,0,0,0,0,0,0,0,0,0,0,2.4091,2.4092,2.4144,2.4149,2.4319,2.432,2.4538,2.454,0,0,0,0,0,0,0,0,0,0,0,2.409,2.4091,2.4093,2.4149,2.4319,2.432,2.4538,2.441,0,0,0,0,0,0,0,0,0,0,2.4244,2.419,2.4091,2.4093,2.415,2.4319,2.432,2.4403,2.4418,2.446,0,2.4494,0,2.452,2.4555,2.4556,0,0,0,2.4152,2.4178,2.4227,2.4093,2.4152,2.4319,2.4243,2.4411,2.4427,2.4478,2.4497,2.4505,2.4524,2.4556,2.4557,2.4783,2.4784,0,0,2.4142,2.412,2.4216,2.4237,2.4207,2.4238,2.4249,2.4421,2.4441,2.4498,2.451,2.4528,2.4558,2.4559,2.4782,2.4783,0,0,0,2.4113,2.4113,2.4158,2.4228,2.4258,2.4243,2.4255,2.4433,2.4449,2.4513,2.453,2.4559,2.4561,2.4781,2.4783,2.4804,0,0,0,2.4108,2.4096,2.4154,2.4142,2.4255,2.4347,2.4263,2.4437,2.4458,2.4529,2.4559,2.4563,2.478,2.4782,2.4801,2.4818,0,0,0,2.4081,2.4093,2.4116,2.414,2.4213,2.4345,2.4371,2.4442,2.4468,2.4556,2.4564,2.478,2.4782,2.4799,2.4814,2.4871,0,0,0,2.4046,2.4134,2.4116,2.4222,2.4211,2.4356,2.437,2.448,2.4558,2.456,2.478,2.4783,2.4798,2.4812,2.4868,2.4914,2.4931,0,0,2.4145,2.4145,2.4209,2.4198,2.434,2.4332,2.4479,2.4572,2.4602,2.4722,2.4728,2.4802,2.4814,2.487,2.5034,2.5047,0,0,0,2.4233,2.4278,2.4321,2.4392,2.4464,2.4529,2.4602,2.4637,2.4739,2.4658,2.4839,2.4847,2.4881,2.4904,2.4915,2.4946,2.4792,2.4792,2.4792,2.434,2.4372,2.4481,2.4534,2.4604,2.4678,2.4739,2.4799,2.4813,2.4855,2.4891,2.4986,2.5012,2.502,2.5052,2.4918,2.4918,2.4918,2.4918,2.4488,2.4557,2.4573,2.4683,2.4718,2.4812,2.4889,2.4896,2.499,2.4961,2.4993,2.4959,2.5034,2.5064,2.492,2.492,2.492,2.4919,2.4919,2.4561,2.46,2.464,2.4747,2.4827,2.488,2.497,2.4999,2.5028,2.5059,2.51,2.51,2.5104,2.5077,2.5077,2.5077,2.5078,2.5078,2.5078,2.4621,2.4666,2.4736,2.482,2.4871,2.4941,2.5018,2.507,2.5135,2.515,2.515,2.516,2.5035,2.5002,2.5083,2.5082,2.5082,2.5081,2.5081,2.4758,2.4732,2.484,2.489,2.4993,2.5071,2.5108,2.5211,2.5258,2.5302,2.5306,2.5208,2.5211,2.5203,2.5176,2.5297,2.5297,2.5297,2.5297,2.4819,2.4823,2.4942,2.502,2.5102,2.5146,2.5271,2.5333,2.5393,2.5425,2.5412,2.538,2.5369,2.5379,2.5367,2.5342,2.5503,2.5503,2.5504,2.4905,2.4919,2.5018,2.5074,2.5157,2.5229,2.5347,2.544,2.5503,2.5513,2.5451,2.5442,2.539,2.5372,2.5378,2.5358,2.5314,0,0]},{"header":{"parameterUnit":"m.s-1","parameterCategory":1,"la1":30.2992,"la2":30.254,"lo1":-89.0895,"lo2":-89.0443,"dy":0.0025,"dx":0.0025,"nx":19,"ny":19,"refTime":"2026-03-21T21:00:00:Z","depth":0,"parameterNumber":3,"parameterNumberName":"V-component_of_WINDS"},"data":[0,0,0,3.5224,3.5226,3.5293,3.5293,3.5376,3.5377,0,0,0,0,0,0,0,0,0,0,0,3.5204,3.5205,3.5224,3.5226,3.5293,3.5293,3.5376,3.5377,0,0,0,0,0,0,0,0,0,0,0,3.5204,3.5204,3.5205,3.5226,3.5293,3.5293,3.5376,3.5326,0,0,0,0,0,0,0,0,0,0,3.5261,3.5242,3.5204,3.5205,3.5227,3.5293,3.5293,3.5323,3.5329,3.5345,0,3.536,0,3.537,3.5382,3.5382,0,0,0,3.5226,3.5237,3.5256,3.5205,3.5227,3.5293,3.5263,3.5326,3.5333,3.5352,3.5361,3.5364,3.5371,3.5383,3.5383,3.5481,3.5481,0,0,3.5222,3.5215,3.5252,3.526,3.5252,3.526,3.5265,3.533,3.5339,3.5362,3.5366,3.5373,3.5383,3.5384,3.548,3.5481,0,0,0,3.5212,3.5213,3.523,3.5257,3.5269,3.5262,3.5267,3.5336,3.5343,3.5367,3.5374,3.5384,3.5385,3.548,3.5481,3.5499,0,0,0,3.5209,3.5207,3.5228,3.5225,3.5268,3.5304,3.5272,3.5338,3.5346,3.5373,3.5384,3.5385,3.5479,3.548,3.5497,3.5508,0,0,0,3.52,3.5205,3.5215,3.5224,3.5253,3.5303,3.5313,3.534,3.535,3.5382,3.5386,3.5479,3.548,3.5496,3.5506,3.5534,0,0,0,3.5187,3.5228,3.5215,3.5264,3.5253,3.5314,3.5313,3.5358,3.5389,3.5384,3.5479,3.5481,3.5496,3.5505,3.5532,3.5556,3.5566,0,0,3.5235,3.5234,3.5263,3.5254,3.5317,3.5305,3.537,3.5402,3.541,3.5456,3.5459,3.5498,3.5506,3.5533,3.5619,3.5626,0,0,0,3.5276,3.5298,3.5316,3.5346,3.5374,3.5398,3.5423,3.5435,3.5475,3.5433,3.5515,3.552,3.5536,3.5548,3.5554,3.5569,3.5486,3.5485,3.5485,3.5334,3.5345,3.5395,3.5414,3.5443,3.5469,3.5494,3.5515,3.5514,3.5533,3.5547,3.5598,3.5612,3.5617,3.5632,3.556,3.556,3.556,3.5561,3.5407,3.5439,3.5441,3.549,3.5501,3.5541,3.5568,3.5567,3.5606,3.5588,3.5603,3.5583,3.5625,3.5639,3.5562,3.5562,3.5562,3.5561,3.5561,3.5447,3.5464,3.5481,3.5527,3.5561,3.5579,3.5617,3.5625,3.5631,3.5646,3.5663,3.5662,3.5664,3.5654,3.5654,3.5654,3.5654,3.5654,3.5654,3.5482,3.55,3.5532,3.5568,3.5589,3.5619,3.5647,3.5667,3.5692,3.5694,3.5695,3.5693,3.5627,3.5611,3.5657,3.5657,3.5656,3.5656,3.5656,3.5552,3.5538,3.5589,3.5611,3.5654,3.5688,3.5698,3.5741,3.5759,3.5778,3.5774,3.5724,3.5722,3.5717,3.5703,3.5771,3.5771,3.5771,3.5771,3.5586,3.5587,3.5642,3.5677,3.5712,3.5727,3.5784,3.5806,3.5827,3.5839,3.583,3.5813,3.5807,3.5809,3.5802,3.5789,3.5878,3.5878,3.5878,3.5631,3.5636,3.5683,3.5706,3.5741,3.577,3.5824,3.5864,3.5884,3.5882,3.5849,3.5844,3.5816,3.5807,3.5804,3.5793,3.577,0,0]}]]